Weather History for Abbotsford, BC

Change the Weather History Date:

Sunday, July 28, 2013

  Actual Average Record
Temperature  
Mean Temperature 62 °F -  
Max Temperature 74 °F 74 °F 87 °F (1996)
Min Temperature 51 °F 52 °F 46 °F (2008)
Degree Days  
Heating Degree Days 2    
Growing Degree Days 12 (Base 50)    
Moisture  
Dew Point 54 °F    
Average Humidity 69    
Maximum Humidity 88    
Minimum Humidity 49    
Precipitation  
Precipitation 0.00 in 0.07 in - ()
Sea Level Pressure  
Sea Level Pressure 29.98 in    
Wind  
Wind Speed 4 mph ()    
Max Wind Speed 13 mph    
Max Gust Speed 20 mph    
Visibility 15.7 miles    
Events      
Averages and records for this station are not official NWS values.
T = Trace of Precipitation, MM = Missing Value Source: Averaged Metar Reports

Daily Weather History Graph

Daily Weather History Graph

Search for Another Location

Airport:

Trip Planner

Search our weather history database for the weather conditions in past years. The results will help you decide how hot, cold, wet, or windy it might be!

Date:

Astronomy

Jul. 28, 2013 Rise Set
Actual Time 5:37 AM PDT 8:53 PM PDT
Civil Twilight 4:59 AM PDT 9:31 PM PDT
Nautical Twilight 4:08 AM PDT 10:21 PM PDT
Astronomical Twilight 3:03 AM PDT 11:26 PM PDT
Moon 11:34 PM PDT (7/28) 1:07 PM PDT (7/28)
Length of Visible Light 16h 32m
Length of Day
15h 16m
Waning Gibbous, 60% of the Moon is Illuminated
Jul 28
Waning Gibbous
Jul 29
Last Quarter
Aug 6
New
Aug 14
First Quarter
Aug 20
Full

Hourly Weather History & Observations

Time (PDT) Temp. Dew Point Humidity Pressure Visibility Wind Dir Wind Speed Gust Speed Precip Events Conditions
12:00 AM 59.0 °F 51.8 °F 77% 30.01 in 15.0 mi NNW 2.3 mph - N/A   Clear
1:00 AM 57.2 °F 50.0 °F 77% 30.00 in 15.0 mi North 2.3 mph - N/A   Clear
2:00 AM 55.4 °F 51.8 °F 88% 30.00 in 30.0 mi WSW 2.3 mph - N/A   Clear
3:00 AM 55.4 °F 51.8 °F 88% 30.00 in 15.0 mi Calm Calm - N/A   Clear
4:00 AM 55.4 °F 50.0 °F 82% 30.00 in 20.0 mi Calm Calm - N/A   Partly Cloudy
5:00 AM 53 °F 49 °F 82% 30.00 in 28 mi SW 1.2 mph - -   Scattered Clouds
5:00 AM 53.6 °F 48.2 °F 82% 30.00 in 30.0 mi Calm Calm - N/A   Partly Cloudy
6:00 AM 51.8 °F 48.2 °F 88% 30.00 in 30.0 mi Calm Calm - N/A   Scattered Clouds
7:00 AM 55.4 °F 50.0 °F 82% 30.01 in 30.0 mi Calm Calm - N/A   Mostly Cloudy
8:00 AM 59.0 °F 50.0 °F 72% 30.01 in 30.0 mi South 2.3 mph - N/A   Scattered Clouds
9:00 AM 62.6 °F 53.6 °F 72% 30.01 in 30.0 mi SSW 4.6 mph - N/A   Clear
10:00 AM 66.2 °F 55.4 °F 68% 30.00 in 30.0 mi WSW 8.1 mph - N/A   Clear
11:00 AM 68 °F 55 °F 55% 29.99 in 28 mi SW 10.4 mph - -   Scattered Clouds
11:00 AM 68.0 °F 55.4 °F 64% 29.99 in 30.0 mi SW 10.4 mph - N/A   Partly Cloudy
12:00 PM 69.8 °F 55.4 °F 60% 29.99 in 30.0 mi SW 12.7 mph - N/A   Partly Cloudy
1:00 PM 71.6 °F 53.6 °F 53% 29.98 in 30.0 mi SW 10.4 mph - N/A   Partly Cloudy
2:00 PM 71.6 °F 57.2 °F 60% 29.97 in 30.0 mi SW 11.5 mph - N/A   Scattered Clouds
3:00 PM 73.4 °F 59.0 °F 61% 29.96 in 30.0 mi SW 11.5 mph 19.6 mph N/A   Scattered Clouds
4:00 PM 73.4 °F 57.2 °F 57% 29.96 in 30.0 mi West 9.2 mph - N/A   Scattered Clouds
5:00 PM 73 °F 58 °F 49% 29.95 in 28 mi SW 11.5 mph - -   Scattered Clouds
5:00 PM 73.4 °F 57.2 °F 57% 29.95 in 30.0 mi WSW 11.5 mph - N/A   Scattered Clouds
6:00 PM 73.4 °F 55.4 °F 53% 29.94 in 30.0 mi WSW 11.5 mph - N/A   Scattered Clouds
7:00 PM 71.6 °F 55.4 °F 57% 29.94 in 30.0 mi SSW 9.2 mph - N/A   Partly Cloudy
8:00 PM 69.8 °F 55.4 °F 60% 29.94 in 30.0 mi SW 9.2 mph - N/A   Partly Cloudy
9:00 PM 66.2 °F 55.4 °F 68% 29.95 in 30.0 mi West 5.8 mph - N/A   Mostly Cloudy
10:00 PM 66.2 °F 55.4 °F 68% 29.96 in 15.0 mi West 6.9 mph - N/A   Mostly Cloudy
11:00 PM 65 °F 56 °F 65% 29.97 in 15 mi West 6.9 mph - -   Mostly Cloudy
11:00 PM 64.4 °F 55.4 °F 73% 29.97 in 15.0 mi West 6.9 mph - N/A   Mostly Cloudy